Regional Weather Roundup
Issued by NWS Upton, NY

Current Version | Previous Version | Text Only | Print | Product List | Glossary On
Versions: 1 2 3 4 5 6 7 8 9 10 11 12 13 14 15 16 17 18 19 20 21 22 23 24 25 26 27 28 29 30 31 32 33 34 35 36 37 38 39 40 41 42 43 44 45 46 47 48 49 50
233 ASUS41 KOKX 301604 RWROKX REGIONAL WEATHER ROUNDUP NATIONAL WEATHER SERVICE NEW YORK NY 1200 PM EDT SAT JUL 30 2016 NOTE: "FAIR" INDICATES FEW OR NO CLOUDS BELOW 12,000 FEET WITH NO SIGNIFICANT WEATHER AND/OR OBSTRUCTIONS TO VISIBILITY. NYZ071-072-176-178-NJZ106-104-301700- NEW YORK CITY METRO AREA CITY SKY/WX TMP DP RH WIND PRES REMARKS Central Park PTSUNNY 83 69 62 NE7 30.04S LaGuardia APRT PTSUNNY 80 68 66 NE13 30.01S Kennedy INTL PTSUNNY 82 72 71 SE12 30.02R Newark/Liberty PTSUNNY 84 71 65 VRB5 30.00S Bronx Bot Gard N/A 79 68 69 N2 30.04R Wall St Helipt SUNNY 84 72 65 NE8 30.01S Teterboro PTSUNNY 81 67 62 NE6 30.00F $$ NYZ177-179-078>081-301700- LONG ISLAND NEW YORK CITY SKY/WX TMP DP RH WIND PRES REMARKS Farmingdale MOSUNNY 84 71 65 SE5 30.01S MacArthur/ISP PTSUNNY 83 72 69 SE7 30.01S Shirley PTSUNNY 82 72 71 SE10 30.03S Riverhead NOT AVBL Westhampton CLOUDY 80 70 71 SE8 30.05R Southhampton N/A 75 72 88 S9 30.00R Bridgehampton N/A 81 72 74 S2 30.03R East Hampton FAIR 78 70 75 SE7 30.03R Montauk N/A 81 69 67 VRB3 30.05R $$ NYZ052-065-067-301700- HUDSON VALLEY CITY SKY/WX TMP DP RH WIND PRES REMARKS White Plains MOSUNNY 80 68 66 E6 30.03S Newburgh PTSUNNY 77 66 69 NE6 30.06S Montgomery PTSUNNY 79 66 64 N5 30.04S Poughkeepsie CLOUDY 80 64 58 CALM 30.02S Albany PTSUNNY 77 62 59 VRB3 30.06S $$ NJZ001-105-106-008-010-013-015-019>022-104-301700- NEW JERSEY CITY SKY/WX TMP DP RH WIND PRES REMARKS Newark/Liberty PTSUNNY 84 71 65 VRB5 30.00S Teterboro PTSUNNY 81 67 62 NE6 30.00F Caldwell PTSUNNY 83 71 67 E7 30.02S Morristown PTSUNNY 82 72 69 E5 30.01F Somerville PTSUNNY 84 70 62 S5 29.99S Linden FAIR 85 68 56 SE7 30.02S Sussex MOSUNNY 78 68 71 N5 30.03F Abdover N/A 80 70 71 N5 30.03F Trenton MOSUNNY 83 72 69 CALM 29.99F Millville CLOUDY 85 71 63 VRB7 30.01S HX 90 Atlantic City CLOUDY 83 66 56 SE10 30.02R Wrightstown PTSUNNY 82 75 78 VRB2 29.98S Toms River PTSUNNY 85 75 72 CALM 30.01F HX 93 Belmar CLOUDY 84 73 69 S7 30.02S HX 90 $$ PAZ047>061-062-071-301700- EASTERN PENNSYLVANIA CITY SKY/WX TMP DP RH WIND PRES REMARKS Philadelphia PTSUNNY 87 72 60 S8 29.99F HX 93 Allentown PTSUNNY 84 71 65 E3 30.00F Scranton PTSUNNY 83 66 56 CALM 30.00F $$ CTZ002-004>006-009-010-012-RIZ004-006-007-MAZ004-011-015-301700- SOUTHERN NEW ENGLAND IN CT CITY SKY/WX TMP DP RH WIND PRES REMARKS Bradley INTL PTSUNNY 84 58 40 N5 30.03F Hartford SUNNY 85 65 51 E5 30.02S Danbury CLOUDY 79 66 64 VRB3 30.05S Wtrbury/Oxford PTSUNNY 79 64 61 E6 30.08S Bridgeport MOSUNNY 80 69 69 SE10 30.02S Meriden MOSUNNY 84 64 50 SE6 30.02S New Haven PTSUNNY 80 69 69 SE12 30.03R Chester FAIR 82 66 57 S7 30.04S Groton SUNNY 79 69 71 S9 30.03R Wilimantic SUNNY 84 63 49 CALM 30.04S IN RI CITY SKY/WX TMP DP RH WIND PRES REMARKS Providence MOSUNNY 82 63 52 E7 30.04R Block Island SUNNY 78 68 71 E6 30.05R Westerly SUNNY 80 67 64 SE10 30.04R IN MA CITY SKY/WX TMP DP RH WIND PRES REMARKS Boston MOSUNNY 76 63 64 SE14 30.04R Worchester MOSUNNY 78 56 46 CALM 30.07S Westfield SUNNY 82 57 42 VRB7 30.03F Provincetown SUNNY 75 65 70 N9 30.05R Nantucket MOSUNNY 76 69 79 N7 30.04R $$ ANZ330-335-338-340-345-350-353-355-301700- COASTAL MARINE OBSERVATIONS STATION/POSITION TIME SKY/WX TEMP WIND PRES VSBY WAVE AIR SEA DIR/SP/G HT/PER (UTC) (F) (DEG/KT/KT) (MB) (MI) (FT/S) NY HARB ENTRANCE 1450 74 75 190/ 4/ 4 1016.2 2/ 5 20S FIRE ISLAND 1450 78 76 CALM 1016.1 2/ 6 GREAT SOUTH BAY 1500 78 82 140/ 4/ 6 N/A 23 SSW MONTAUK P 1450 74 74 30/ 4/ 4 1017.2 2/ 6 15 E BARNEGAT LI 1500 79 N/A 2/ 5 HUDSON CANYON 1450 78 79 1016.8 2/ 6 KINGS POINT 1500 76 72 1016.2 EXECUTION ROCKS 1500 74 60/ 10/ 12 N/A CENTRAL LI SOUND 1500 74 74 90/ 8/ 10 N/A 1 EASTERN LI SOUND 1500 74 68 180/ 4/ 6 N/A ROBBINS REEF 1500 79 10/ 7/ 8 1015.4 $$ >>>>>>>>>>>>>>>>>>>>>>>>>>>> KEY <<<<<<<<<<<<<<<<<<<<<<<<<<< > < > SKY/WX - Sky Condition/Present Weather < > TMP - Temperature in Fahrenheit < > DP - Dew Point in Fahrenheit < > RH - Relative Humidity in Percent < > WIND - Direction (from) and Speed in MPH < > PRES - Mean Sea Level Pressure (inches of Hg) < > WCI - Wind Chill Index < > VSB - VISIBILITY IN MILES < > HX - HEAT INDEX < > TC - TEMPERATURE IN CELSIUS < > VRB - VARIABLE WIND DIRECTION < > < >>>>>>>>>>>>>>>>>>>>>>>>>>>> KEY <<<<<<<<<<<<<<<<<<<<<<<<<<<

USA.gov is the U.S. government's official web portal to all federal, state and local government web resources and services.